Preview of NWS' New Version of Forecast
This preview is not operational and should not be used for support decisions.

Regional Weather Roundup (RWR)

Issued by Gray - Portland, ME (GYX)

                            
000
ASUS41 KGYX 211510
RWRGYX
WEATHER ROUNDUP FOR MAINE AND NEW HAMPSHIRE
NATIONAL WEATHER SERVICE GRAY ME
1000 AM EST THU FEB 21 2019

MEZ002-005-006-010-012-015-018-020-021-024-026-027-029-211600-
MAINE
  
CITY           SKY/WX    TMP DP  RH WIND       PRES   REMARKS
PORTLAND       FRZ DRZL  26  24  92 W8        29.84F FOG              
SANFORD        CLOUDY    28  26  92 NW3       29.83F FOG              
BAR HARBOR     LGT SNOW  33  30  88 E3        29.83F VSB 1            
WISCASSET      LGT SNOW  32  31  96 CALM      29.83F FOG              
ROCKLAND       LGT RAIN  34  33  96 S6        29.82F FOG              
FRYEBURG       PTSUNNY   24  20  84 CALM      29.81F FOG              
LEWISTONAUBURN LGT SNOW  27  23  85 N3        29.82F FOG              
AUGUSTA        LGT SNOW  25  22  88 N6        29.82F FOG              
WATERVILLE     LGT SNOW  34  27  75 N3        29.78F                  
BANGOR         LGT SNOW  26  24  92 CALM      29.83F FOG              
GREENVILLE       N/A     18  12  77 SE9       29.70F                  
MILLINOCKET    CLOUDY    21  16  81 VRB3      29.82F                  
HOULTON        LGT SNOW  17  14  88 SE8       29.81F FOG              
PRESQUE ISLE   FLURRIES  16  11  80 SE8       29.80F                  
FRENCHVILLE    LGT SNOW  15   9  76 SE12      29.73F WCI   2          
CARIBOU        LGT SNOW  17  12  80 SE9       29.77F                  
$$

NHZ002-005-008-009-011-012-014-211600-
NEW HAMPSHIRE
  
CITY           SKY/WX    TMP DP  RH WIND       PRES   REMARKS
PORTSMOUTH     CLOUDY    28  26  94 NW6       29.82F FOG              
ROCHESTER      CLOUDY    26  25  96 NW10      29.83F WCI  16          
NASHUA         CLOUDY    30  29  96 CALM      29.86F                  
MANCHESTER     CLOUDY    29  25  85 N6        29.84F                  
CONCORD        CLOUDY    26  25  96 CALM      29.85F                  
LACONIA        CLOUDY    27  25  92 SW5       29.82F                  
PLYMOUTH       CLOUDY    26  24  89 CALM      29.82F                  
BERLIN         CLOUDY    26  22  84 N5        29.74F                  
WHITEFIELD     CLOUDY    27  22  81 CALM      29.76F                  
JAFFREY        CLOUDY    27  27 100 S5        29.80F                  
KEENE          CLOUDY    33  27  78 CALM      29.85S                  
LEBANON        CLOUDY    28  23  81 S3        29.81F                  
MT WASHINGTON  BLWGSNOW  18  18 100 W58G68      N/A  VSB 1/16WCI  -7  
$$

VTZ005-007-008-211600-
VERMONT
  
CITY           SKY/WX    TMP DP  RH WIND       PRES   REMARKS
ST JOHNSBURY     N/A     28  25  88 MISG      29.77F                  
MONTPELIER     CLOUDY    28  27  96 CALM      29.78F                  
BURLINGTON     CLOUDY    35  29  78 S15G23    29.78S                  
$$

MAZ007-012-024-CTZ003-RIZ002-NYZ038-NYZ072-211600-
SOUTHERN NEW ENGLAND AND NY
  
CITY           SKY/WX    TMP DP  RH WIND       PRES   REMARKS
BOSTON         CLOUDY    33  29  85 NW10      29.85F FOG              
WORCESTER      CLOUDY    31  30  96 W10       29.81F                  
NANTUCKET      CLOUDY    37  37 100 NW17G26   29.82R FOG              
PROVIDENCE     CLOUDY    33  30  88 N6        29.88S                  
HARTFORD       PTSUNNY   31  28  89 SE5       29.88F                  
ALBANY         CLOUDY    37  31  78 CALM      29.90R                  
NEW YORK CITY  FAIR      41  34  76 W10       29.95R                  
$$

ANZ081-ANZ082-ANZ150-NHZ014-MEZ023>029-211600-
COASTAL MARINE OBSERVATIONS
  
STATION/POSITION TIME  TEMP    WIND        PRES    WAVE
                       AIR SEA DIR/SP/G            HT/PER
                 (UTC) (F)     (DEG/KT/KT) (MB)    (FT/S)
MOUNT DESERT ROC 1500   33     130/ 22/ 23 1009.8F
MATINICUS ROCK   1400   34     140/ 21/ 23 1009.9F
ISLE OF SHOALS   1400   28     330/  6/  7 1010.8F
JEFFREYS LEDGE   1408      40                N/A     5/ 7
CASHES LEDGE BUO 1450   36 39              1009.3F   6/ 7
$$

.............KEY..............
   WCI - WIND CHILL
   TC  - TEMPERATURE IN CELSIUS
   VSB - VISIBILITY IN MILES
   HX  - HEAT INDEX
   FAIR- INDICATES FEW OR NO CLOUDS BELOW 12,000 FT, WITH NO 
         SIGNIFICANT WEATHER AND/OR OBSTRUCTIONS TO VISIBILITY.